Погода в Пархаре

Погода в Пархаре : погода сейчас, прогноз погоды и архив. Всё, что Вы хотите узнать о погоде в Пархаре!

Поиск расширенной информации на нашем сайте:

Другие новости

Новости СМИ2

Главная страница сайта

Новости сайта

03.07.2017

Напоминаем, что на нашем специализированном сайте Метеоцентр.Азия вы можете получить высокодетализированные автоматические прогнозы погоды по пунктам России, СНГ и мира в авиационном формате (включающие направление и скорость ветра, видимость, явления погоды, количество и форму облачности, нижнюю и верхнюю границу облачности).


Погода в Пархаре - сегодня

Время (UTC), дата Ветер
(°,м/с) 
Видим.   Явления Облачность Т
(°С)
Тd
(°С)
f(%) Тe
(°С)
Pmin
(гПа)
dP
(гПа)
Po
(мм)
O2
(г/м3)
Тmin Tmax R s Состояние
почвы
21 14.02.18 тихо ()   н/о  в посл. час ливневой дождь  10/10 600 м кучево-дожд. 
[Cb cap]
+10.1 +9.5 96 +11  1010.2  0.3  718  277           
00 15.02.18 220 (ЮЗ) н/о  слаб. ливневой дождь  10/3 600 м верхняя 
[Frnb|Ci ing]
+9.9 +9.7 99 +9    2.5             
06 15.02.18 160 (Ю) 10 км  {ливн. осадки}  10/10 600 м кучево-дожд. 
[Cb cap]
+6.8 +4.2 83 +4  1023.1  5.3  727  285  +0.9    16     
09 15.02.18 160 (Ю) 20000 м    10/10 600 м кучево-дожд. 
[Cb cap]
+7.2 +5 86 +7  1026.3  3.1  729  285           
12 15.02.18 160 (Ю) 4000 м  слаб. ливневой дождь  8/6 600 м кучево-дожд., средняя 
[Cb cap|Ac trans]
+6.9 +5.1 88 +7  1026.5  0.2  729  286           
15 15.02.18 160 (Ю) н/о    8/0 средняя 
[Ac trans]
+5.3 +4.4 94 +6  1027.3  0.4  730  288    +11.2  0.2     
18 15.02.18 тихо ()   н/о    9/0 средняя 
[Ac trans]
+4.5 +3.5 93 +5  1027.9  0.3  730  289    +11.2  0.2     
21 15.02.18 тихо ()   н/о    3/0 средняя 
[Ac trans]
+4 +3.8 99 +4  1026.8  -1  729  289           
00 16.02.18 тихо ()   н/о    ясно 
+3.2 +3 99 +3  1026  -1  728  290           
06 16.02.18 тихо ()   2000 м  туман  10/0 средняя 
[Ac und]
+4.6 +4.6 100 +5  1027.8  1.8  730  288  +1.7         
09 16.02.18 тихо ()   10 км  {туман}  8/8 1000 м 
[Sc]
+8.6 +4.3 74 +9  1024.4  -2.4  728  284           
12 16.02.18 тихо ()   10 км  {туман}  6/6 1000 м 
[Cu med, cong]
+9.6 +4.6 71 +10  1021.8  -2.1  726  282           
15 16.02.18 тихо ()   н/о    ясно 
+7.5 +4.3 80 +8  1025.4  2.8  728  285    +10.5       
18 16.02.18 тихо ()   н/о    10/10 1000 м 
[Sc]
+7.5 +5.3 86 +8  1025.8  0.4  729  285    +10.5       
21 16.02.18 090 (В) н/о    10/10 1000 м 
[Sc]
+7 +4.6 85 +8  1025.5  -0.3  729  285           
00 17.02.18 020 (С) н/о    10/10 1000 м 
[Sc]
+6.6 +5.2 91 +8  1025.5  729  286           
03 17.02.18 040 (СВ) 10 км    9/9 1000 м 
[Sc]
+6.6 +4.5 86 +8  1024.7  -0.9  728  286  +6.5         
06 17.02.18 тихо ()   10 км    6/6 1000 м 
[Sc]
+9.7 +6.1 78 +10  1024.5  0.5  728  282  +6.5         
09 17.02.18 тихо ()   10 км    6/6 1000 м 
[Sc]
+12 +5 62 +12  1021.2  -2.7  726  279           
12 17.02.18 тихо ()   10 км    8/0 верхняя 
[Ci fib]
+12.2 +3.2 54 +12  1018.9  -2.2  725  279           
15 17.02.18 тихо ()   н/о    3/0 верхняя 
[Ci fib]
+7.4 +4 79 +7  1019.2  -0.6  724  283    +13.6       
18 17.02.18 тихо ()   н/о    3/0 верхняя 
[Ci fib]
+6.6 +4 83 +7  1018.6  -0.7  724  284    +13.6       
21 17.02.18 360 (С) н/о    4/0 верхняя 
[Ci fib]
+5.2 +3.6 89 +6  1017  -1.8  722  285           
00 18.02.18 тихо ()   н/о    5/0 средняя, верхняя 
[Ac trans|Ci fib]
+4.7 +3.3 91 +5  1015.8  -1.1  721  285           
03 18.02.18 тихо ()   10 км    8/0 средняя 
[Ac trans]
+5.2 +3.5 89 +5  1016.8  722  285  +4.6         
Время (UTC), дата Ветер
(°,м/с) 
Видим.   Явления Облачность Т
(°С)
Тd
(°С)
f(%) Тe
(°С)
Pmin
(гПа)
dP
(гПа)
Po
(мм)
O2
(г/м3)
Тmin Tmax R s Состояние
почвы

Для получения пояснительной информации подведите курсор к названию столбца.

ПОГОДА в Пархаре - архив

Всё, что Вы хотите узнать о погоде в Пархаре - удобно и подробно!

Выберите нужную дату (начиная с 1 января 2015* года) и нажмите кнопку "Найти".
Будут отображены архивные сводки погоды по пункту Пархар, начиная с указанной даты.


Отображать данные в формате CSV (для использования в таблицах Excel)


Внимание! Наш архив погоды предназначен исключительно для личного некоммерческого использования в познавательных целях. Если Вам необходимы официальные справки о состоянии погоды (для производственных, юридических, коммерческих и т.п. целей), обращайтесь в органы Росгидромета.

*Примечание: данная дата относится к архиву по метеостанциям СССР (Россия, СНГ, Балтия).
Архив по метеостанциям Зарубежной Европы и Азии (кроме Китая) хранится 10 дней, по другим регионам земного шара (Китай, Африка, Америка, Австралия, Океания) - 1 день.

Пархар - район местоположения метеостанции


Название, широта, долгота, высота метеостанции:
Пархар 37.5°ш. 69.4°д. 448 м над ур. моря [Таджикистан]

Дополнительная информация

В oтличие oт бoльшинства пoгoдных сайтoв мы публикуем пoдрoбную метеoинфoрмацию в детальнoм прoфессиoнальнoм фoрмате.

Характеристики температуры и влажнoсти вoздуха измеряются на высoте 2 м в тени вдали oт зданий и деревьев.
Скoрoсть ветра измеряется на высoте 10 м (на урoвне рoста челoвека скoрoсть ветра ниже в 1.5-2 раза). Если метеoстанция нахoдится в гoрoде или в лесу, тo скoрoсть ветра занижена на 2-4 м/с пo сравнению с oткрытым местoм. Скoрoсть ветра над акватoриями крупных рек и oзёр, а также на вершинах хoлмoв на 2-5 м/с выше, чем в oбычных услoвиях.
Атмoсфернoе давление в разных тoчках местнoсти мoжет значительнo oтличаться oт давления на метеoстанции, в зависимoсти oт услoвий рельефа (при пoдъёме на 10 м давление пoнижается примернo на 1 мм рт.ст.).